| time (UTC) | temp F | wind direction | speed MPH | gust MPH | rain 1hr in | rain 24hr in | rain mn in | humidity % | barometer mb |
| 20260831082017 | 68 | 0.0 | 1.0 | 0.00 | 0.20 | 0.20 | 79 | 1018.8 | |
| 20260831081017 | 67 | 0.0 | 2.0 | 0.00 | 0.20 | 0.20 | 83 | 1018.8 | |
| 20260831080017 | 64 | 0.0 | 3.0 | 0.00 | 0.20 | 0.20 | 87 | 1018.6 | |
| 20260831075015 | 64 | 0.0 | 4.0 | 0.00 | 0.20 | 0.20 | 89 | 1018.6 | |
| 20260831074057 | 64 | 0.0 | 1.0 | 0.00 | 0.20 | 0.20 | 90 | 1018.5 | |
| 20260831073017 | 64 | 0.0 | 0.0 | 0.00 | 0.20 | 0.20 | 90 | 1018.3 | |
| 20260831072017 | 64 | 0.0 | 3.0 | 0.00 | 0.20 | 0.20 | 91 | 1018.3 | |
| 20260831071017 | 64 | 338 | 1.0 | 6.0 | 0.00 | 0.20 | 0.20 | 91 | 1018.4 |
| 20260831070017 | 64 | 0.0 | 2.0 | 0.00 | 0.20 | 0.20 | 92 | 1018.3 | |
| 20260831065017 | 64 | 0.0 | 2.0 | 0.00 | 0.20 | 0.20 | 93 | 1018.1 | |
| 20260831064017 | 64 | 0 | 1.0 | 6.0 | 0.00 | 0.20 | 0.20 | 94 | 1018.1 |
| 20260831063017 | 63 | 0.0 | 3.0 | 0.00 | 0.20 | 0.20 | 94 | 1018.0 | |
| 20260831062017 | 63 | 0.0 | 1.0 | 0.00 | 0.20 | 0.20 | 94 | 1018.0 | |
| 20260831061017 | 63 | 0.0 | 0.0 | 0.00 | 0.20 | 0.20 | 93 | 1018.0 | |
| 20260831060017 | 63 | 0.0 | 0.0 | 0.00 | 0.20 | 0.20 | 93 | 1017.7 | |
| 20260831055017 | 62 | 0.0 | 0.0 | 0.00 | 0.20 | 0.20 | 93 | 1017.6 | |
| 20260831054017 | 62 | 0.0 | 0.0 | 0.00 | 0.20 | 0.20 | 93 | 1017.7 | |
| 20260831053017 | 62 | 0.0 | 0.0 | 0.00 | 0.20 | 0.20 | 93 | 1017.6 | |
| 20260831052037 | 61 | 0.0 | 0.0 | 0.00 | 0.20 | 0.20 | 92 | 1017.6 | |
| 20260831051037 | 61 | 0.0 | 0.0 | 0.00 | 0.20 | 0.20 | 92 | 1017.6 | |
| 20260831050017 | 61 | 0.0 | 0.0 | 0.00 | 0.20 | 0.20 | 92 | 1017.6 | |
| 20260831045017 | 61 | 0.0 | 0.0 | 0.00 | 0.20 | 0.20 | 92 | 1017.5 | |
| 20260831044017 | 62 | 0.0 | 0.0 | 0.00 | 0.20 | 0.20 | 92 | 1017.5 | |
| 20260831043037 | 62 | 0.0 | 0.0 | 0.00 | 0.20 | 0.20 | 92 | 1017.6 | |
| 20260831042017 | 62 | 0.0 | 0.0 | 0.00 | 0.20 | 0.20 | 92 | 1017.6 | |
| 20260831040017 | 62 | 0.0 | 0.0 | 0.00 | 0.20 | 0.20 | 91 | 1017.4 | |
| 20260831035017 | 62 | 0.0 | 0.0 | 0.00 | 0.20 | 0.20 | 91 | 1017.5 | |
| 20260831034037 | 62 | 0.0 | 0.0 | 0.00 | 0.20 | 0.20 | 91 | 1017.6 | |
| 20260831033037 | 63 | 0.0 | 0.0 | 0.00 | 0.20 | 0.20 | 91 | 1017.7 | |
| 20260831032017 | 63 | 0.0 | 0.0 | 0.00 | 0.20 | 0.20 | 91 | 1017.6 | |
| 20260831031017 | 63 | 0.0 | 0.0 | 0.00 | 0.20 | 0.20 | 91 | 1017.7 | |
| 20260831030017 | 63 | 0.0 | 0.0 | 0.00 | 0.20 | 0.20 | 90 | 1017.6 | |
| 20260831025017 | 63 | 0.0 | 0.0 | 0.00 | 0.20 | 0.20 | 90 | 1017.5 | |
| 20260831024017 | 63 | 0.0 | 0.0 | 0.00 | 0.20 | 0.20 | 90 | 1017.3 | |
| 20260831023017 | 64 | 0.0 | 0.0 | 0.00 | 0.20 | 0.20 | 90 | 1017.0 | |
| 20260831022037 | 64 | 0.0 | 0.0 | 0.00 | 0.20 | 0.20 | 89 | 1017.0 | |
| 20260831021017 | 64 | 0.0 | 0.0 | 0.02 | 0.20 | 0.20 | 89 | 1017.0 | |
| 20260831020017 | 64 | 0.0 | 0.0 | 0.03 | 0.20 | 0.20 | 89 | 1017.0 | |
| 20260831015037 | 64 | 0.0 | 0.0 | 0.16 | 0.20 | 0.20 | 88 | 1017.1 | |
| 20260831014017 | 64 | 0.0 | 0.0 | 0.20 | 0.20 | 0.20 | 88 | 1017.1 | |
| 20260831013017 | 65 | 0.0 | 0.0 | 0.20 | 0.20 | 0.20 | 87 | 1017.1 | |
| 20260831012017 | 65 | 0.0 | 0.0 | 0.20 | 0.20 | 0.20 | 87 | 1017.3 | |
| 20260831011016 | 65 | 0.0 | 2.0 | 0.18 | 0.18 | 0.18 | 86 | 1017.2 | |
| 20260831010017 | 66 | 0.0 | 1.0 | 0.17 | 0.17 | 0.17 | 86 | 1016.9 | |
| 20260831005017 | 65 | 0 | 1.0 | 5.0 | 0.05 | 0.05 | 0.06 | 87 | 1017.6 |
| 20260831004017 | 65 | 0.0 | 5.0 | 0.00 | 0.00 | 0.00 | 88 | 1017.1 | |
| 20260831003017 | 65 | 0.0 | 3.0 | 0.00 | 0.00 | 0.00 | 88 | 1016.0 | |
| 20260831002017 | 64 | 0.0 | 1.0 | 0.00 | 0.00 | 0.00 | 87 | 1015.5 | |
| 20260831001018 | 63 | 0.0 | 0.0 | 0.00 | 0.00 | 0.00 | 84 | 1015.0 | |
| 20260831000017 | 63 | 0.0 | 0.0 | 0.00 | 0.00 | 0.00 | 82 | 1014.7 | |
| 20260830235057 | 64 | 0.0 | 0.0 | 0.00 | 0.00 | 0.00 | 82 | 1014.4 | |
| 20260830234016 | 64 | 0.0 | 0.0 | 0.00 | 0.00 | 0.00 | 82 | 1014.4 | |
| 20260830233017 | 64 | 0.0 | 0.0 | 0.00 | 0.00 | 0.00 | 81 | 1014.4 | |
| 20260830232017 | 64 | 0.0 | 0.0 | 0.00 | 0.00 | 0.00 | 81 | 1014.4 | |
| 20260830231016 | 65 | 0.0 | 0.0 | 0.00 | 0.00 | 0.00 | 81 | 1014.6 | |
| 20260830230017 | 65 | 0.0 | 0.0 | 0.00 | 0.00 | 0.00 | 80 | 1014.7 | |
| 20260830225016 | 65 | 0.0 | 0.0 | 0.00 | 0.00 | 0.00 | 80 | 1014.7 | |
| 20260830224017 | 65 | 0.0 | 0.0 | 0.00 | 0.00 | 0.00 | 79 | 1014.8 | |
| 20260830223037 | 66 | 0.0 | 0.0 | 0.00 | 0.00 | 0.00 | 79 | 1014.9 | |
| 20260830222036 | 66 | 0.0 | 0.0 | 0.00 | 0.00 | 0.00 | 79 | 1014.9 | |
| 20260830221017 | 66 | 0.0 | 0.0 | 0.00 | 0.00 | 0.00 | 79 | 1014.9 | |
| 20260830220016 | 67 | 0.0 | 0.0 | 0.00 | 0.00 | 0.00 | 79 | 1015.0 | |
| 20260830215017 | 67 | 0.0 | 0.0 | 0.00 | 0.00 | 0.00 | 79 | 1014.9 | |
| 20260830214037 | 67 | 0.0 | 0.0 | 0.00 | 0.00 | 0.00 | 78 | 1015.0 | |
| 20260830213017 | 67 | 0.0 | 0.0 | 0.00 | 0.00 | 0.00 | 78 | 1015.1 | |
| 20260830212017 | 67 | 0.0 | 0.0 | 0.00 | 0.00 | 0.00 | 77 | 1015.0 | |
| 20260830211017 | 68 | 0.0 | 0.0 | 0.00 | 0.00 | 0.00 | 76 | 1015.0 | |
| 20260830210017 | 68 | 0.0 | 0.0 | 0.00 | 0.00 | 0.00 | 76 | 1015.1 | |
| 20260830205037 | 68 | 0.0 | 0.0 | 0.00 | 0.00 | 0.00 | 75 | 1015.1 | |
| 20260830204017 | 68 | 0.0 | 0.0 | 0.00 | 0.00 | 0.00 | 74 | 1015.1 | |
| 20260830203017 | 68 | 0.0 | 0.0 | 0.00 | 0.00 | 0.00 | 74 | 1015.1 | |
| 20260830202017 | 69 | 0.0 | 0.0 | 0.00 | 0.00 | 0.00 | 73 | 1015.3 | |
| 20260830201017 | 69 | 0.0 | 0.0 | 0.00 | 0.00 | 0.00 | 72 | 1015.3 | |
| 20260830200017 | 69 | 0.0 | 0.0 | 0.00 | 0.00 | 0.00 | 72 | 1015.3 | |
| 20260830195017 | 70 | 0.0 | 0.0 | 0.00 | 0.00 | 0.00 | 71 | 1015.3 | |
| 20260830194017 | 70 | 0.0 | 0.0 | 0.00 | 0.00 | 0.00 | 70 | 1015.2 | |
| 20260830193017 | 70 | 0.0 | 0.0 | 0.00 | 0.00 | 0.00 | 70 | 1015.2 | |
| 20260830192017 | 71 | 0.0 | 0.0 | 0.00 | 0.00 | 0.00 | 69 | 1015.2 | |
| 20260830191017 | 72 | 0.0 | 0.0 | 0.00 | 0.00 | 0.00 | 68 | 1015.0 | |
| 20260830190037 | 72 | 0.0 | 0.0 | 0.00 | 0.00 | 0.00 | 67 | 1015.1 | |
| 20260830185057 | 73 | 0.0 | 0.0 | 0.00 | 0.00 | 0.00 | 66 | 1015.1 | |
| 20260830184017 | 74 | 0.0 | 0.0 | 0.00 | 0.00 | 0.00 | 66 | 1015.1 | |
| 20260830183017 | 75 | 0.0 | 0.0 | 0.00 | 0.00 | 0.00 | 65 | 1015.0 | |
| 20260830182017 | 76 | 0.0 | 0.0 | 0.00 | 0.00 | 0.00 | 63 | 1014.9 | |
| 20260830181017 | 77 | 0.0 | 0.0 | 0.00 | 0.00 | 0.00 | 60 | 1015.0 | |
| 20260830180017 | 78 | 0.0 | 0.0 | 0.00 | 0.00 | 0.00 | 59 | 1015.0 | |
| 20260830175017 | 79 | 0.0 | 0.0 | 0.00 | 0.00 | 0.00 | 58 | 1014.9 | |
| 20260830174017 | 79 | 0.0 | 0.0 | 0.00 | 0.00 | 0.00 | 58 | 1014.8 | |
| 20260830173037 | 79 | 0.0 | 0.0 | 0.00 | 0.00 | 0.00 | 54 | 1014.9 | |
| 20260830172017 | 79 | 0.0 | 0.0 | 0.00 | 0.00 | 0.00 | 53 | 1014.9 | |
| 20260830171017 | 79 | 0.0 | 1.0 | 0.00 | 0.00 | 0.00 | 54 | 1015.0 | |
| 20260830170017 | 79 | 0.0 | 0.0 | 0.00 | 0.00 | 0.00 | 54 | 1014.9 | |
| 20260830165057 | 80 | 0.0 | 1.0 | 0.00 | 0.00 | 0.00 | 53 | 1014.9 | |
| 20260830164017 | 80 | 0.0 | 0.0 | 0.00 | 0.00 | 0.00 | 51 | 1014.9 | |
| 20260830163037 | 80 | 0.0 | 1.0 | 0.00 | 0.00 | 0.00 | 52 | 1015.0 | |
| 20260830162017 | 80 | 0.0 | 1.0 | 0.00 | 0.00 | 0.00 | 51 | 1014.9 | |
| 20260830161017 | 81 | 0.0 | 2.0 | 0.00 | 0.00 | 0.00 | 51 | 1015.0 | |
| 20260830160017 | 80 | 0.0 | 2.0 | 0.00 | 0.00 | 0.00 | 52 | 1015.0 | |
| 20260830155017 | 81 | 0.0 | 1.0 | 0.00 | 0.00 | 0.00 | 52 | 1015.2 | |
| 20260830154017 | 81 | 0.0 | 1.0 | 0.00 | 0.00 | 0.00 | 50 | 1015.3 | |
| 20260830153017 | 80 | 0.0 | 0.0 | 0.00 | 0.00 | 0.00 | 55 | 1015.3 | |
| 20260830152017 | 80 | 0.0 | 0.0 | 0.00 | 0.00 | 0.00 | 54 | 1015.3 | |
| 20260830151017 | 80 | 0.0 | 2.0 | 0.00 | 0.00 | 0.00 | 55 | 1015.4 | |
| 20260830150037 | 81 | 0.0 | 1.0 | 0.00 | 0.00 | 0.00 | 54 | 1015.4 | |
| 20260830145017 | 81 | 0.0 | 3.0 | 0.00 | 0.00 | 0.00 | 51 | 1015.4 | |
| 20260830144017 | 81 | 0.0 | 2.0 | 0.00 | 0.00 | 0.00 | 54 | 1015.6 | |
| 20260830143017 | 80 | 338 | 1.0 | 3.0 | 0.00 | 0.00 | 0.00 | 54 | 1015.6 |
| 20260830142017 | 80 | 0.0 | 4.0 | 0.00 | 0.00 | 0.00 | 55 | 1015.7 | |
| 20260830141017 | 80 | 0.0 | 1.0 | 0.00 | 0.00 | 0.00 | 57 | 1015.6 | |
| 20260830140017 | 79 | 0.0 | 2.0 | 0.00 | 0.00 | 0.00 | 56 | 1015.7 | |
| 20260830135017 | 80 | 0.0 | 3.0 | 0.00 | 0.00 | 0.00 | 55 | 1015.8 | |
| 20260830134017 | 80 | 0.0 | 3.0 | 0.00 | 0.00 | 0.00 | 56 | 1016.0 | |
| 20260830133037 | 80 | 338 | 1.0 | 3.0 | 0.00 | 0.00 | 0.00 | 55 | 1015.9 |
| 20260830132037 | 80 | 0.0 | 1.0 | 0.00 | 0.00 | 0.00 | 56 | 1016.0 | |
| 20260830131017 | 80 | 315 | 1.0 | 5.0 | 0.00 | 0.00 | 0.00 | 53 | 1016.0 |
| 20260830130017 | 80 | 0.0 | 2.0 | 0.00 | 0.00 | 0.00 | 54 | 1016.0 | |
| 20260830125037 | 80 | 315 | 1.0 | 4.0 | 0.00 | 0.00 | 0.00 | 53 | 1016.2 |
| 20260830124037 | 80 | 315 | 1.0 | 3.0 | 0.00 | 0.00 | 0.00 | 54 | 1016.1 |
| 20260830123038 | 80 | 293 | 1.0 | 6.0 | 0.00 | 0.00 | 0.00 | 51 | 1016.1 |
| 20260830122016 | 80 | 315 | 1.0 | 4.0 | 0.00 | 0.00 | 0.00 | 53 | 1016.3 |
| 20260830121017 | 80 | 0.0 | 4.0 | 0.00 | 0.00 | 0.00 | 54 | 1016.4 | |
| 20260830120016 | 80 | 0.0 | 4.0 | 0.00 | 0.00 | 0.00 | 53 | 1016.6 | |
| 20260830115016 | 80 | 315 | 1.0 | 4.0 | 0.00 | 0.00 | 0.00 | 55 | 1016.7 |
| 20260830114057 | 80 | 315 | 1.0 | 7.0 | 0.00 | 0.00 | 0.00 | 55 | 1016.8 |
| 20260830113017 | 79 | 315 | 1.0 | 3.0 | 0.00 | 0.00 | 0.00 | 55 | 1016.8 |
| 20260830112017 | 79 | 315 | 1.0 | 4.0 | 0.00 | 0.00 | 0.00 | 55 | 1016.7 |
| 20260830111036 | 78 | 0.0 | 3.0 | 0.00 | 0.00 | 0.00 | 56 | 1016.6 | |
| 20260830110016 | 79 | 0.0 | 3.0 | 0.00 | 0.00 | 0.00 | 56 | 1016.9 | |
| 20260830105017 | 79 | 338 | 1.0 | 5.0 | 0.00 | 0.00 | 0.00 | 59 | 1017.0 |
| 20260830104037 | 79 | 0.0 | 6.0 | 0.00 | 0.00 | 0.00 | 55 | 1017.1 | |
| 20260830103017 | 78 | 0.0 | 3.0 | 0.00 | 0.00 | 0.00 | 57 | 1017.2 | |
| 20260830102016 | 77 | 0.0 | 2.0 | 0.00 | 0.00 | 0.00 | 56 | 1017.1 | |
| 20260830101016 | 77 | 0.0 | 2.0 | 0.00 | 0.00 | 0.00 | 60 | 1017.2 | |
| 20260830100016 | 77 | 0.0 | 2.0 | 0.00 | 0.00 | 0.00 | 61 | 1017.4 | |
| 20260830095016 | 76 | 0.0 | 2.0 | 0.00 | 0.00 | 0.00 | 63 | 1017.4 | |
| 20260830094016 | 76 | 68 | 1.0 | 4.0 | 0.00 | 0.00 | 0.00 | 64 | 1017.4 |
| 20260830093037 | 75 | 68 | 1.0 | 3.0 | 0.00 | 0.00 | 0.00 | 63 | 1017.4 |
| 20260830092036 | 75 | 0.0 | 4.0 | 0.00 | 0.00 | 0.00 | 65 | 1017.5 | |
| 20260830091016 | 75 | 0.0 | 2.0 | 0.00 | 0.00 | 0.00 | 65 | 1017.6 | |
| 20260830090017 | 75 | 0.0 | 1.0 | 0.00 | 0.00 | 0.00 | 63 | 1017.5 | |
| 20260830085017 | 75 | 0.0 | 2.0 | 0.00 | 0.00 | 0.00 | 62 | 1017.6 | |
| 20260830084056 | 75 | 0.0 | 2.0 | 0.00 | 0.00 | 0.00 | 61 | 1017.7 | |
| 20260830083056 | 75 | 0.0 | 0.0 | 0.00 | 0.00 | 0.00 | 62 | 1017.5 |